Regional Weather Roundup
Issued by NWS Upton, NY

Current Version | Previous Version | Text Only | Print | Product List | Glossary On
Versions: 1 2 3 4 5 6 7 8 9 10 11 12 13 14 15 16 17 18 19 20 21 22 23 24 25 26 27 28 29 30 31
000
ASUS41 KOKX 241005
RWROKX

Regional Weather Roundup
National Weather Service New York NY
500 AM EST SAT FEB 24 2018

Note: "FAIR" indicates few or no clouds below 12,000 feet with no
significant weather and/or obstructions to visibility.

NYZ071-072-176-178-NJZ106-104-241100-
New York City Metro Area

CITY           SKY/WX    TMP DP  RH WIND       PRES   REMARKS
Central Park   CLOUDY    44  41  89 W5        30.17R
Bronx Bot Gard   N/A     43  39  87 W10       30.15R
Bronx Lehman C   N/A     43  41  93 SW5         N/A
LaGuardia Arpt MOCLDY    45  41  86 W7        30.14R
Queens College   N/A     43  41  93 W8          N/A
Kennedy Intl   MOCLDY    42  42 100 SW10      30.16R
Breezy Point     N/A     41 N/A N/A W6          N/A
Brooklyn Coll    N/A     45  41  87 W7          N/A
Staten Island    N/A     43  41  93 SW9         N/A
Newark/Liberty MOCLDY    42  41  96 SW7       30.15R
Teterboro      FAIR      42  40  92 CALM      30.14R
$$

NYZ177-179-078>081-241100-
Long Island New York

CITY           SKY/WX    TMP DP  RH WIND       PRES   REMARKS
Jones Beach      N/A     41 N/A N/A W10         N/A
Wantagh          N/A     43  41  93 SW7         N/A
Hempstead        N/A     43  41  93 SW8       30.17R
Matinecock Pt    N/A     41 N/A N/A SW14        N/A
Farmingdale    FAIR      42  41  96 W9        30.14R
MacArthur/ISP  FAIR      41  41 100 W7        30.12S FOG
Stony Brook U    N/A     43  41  93 W3          N/A
Shirley        FAIR      41  41 100 SW6       30.12S FOG
Mt Sinai Harb    N/A     43 N/A N/A W6G14       N/A
Westhampton    MOCLDY    40  40 100 SW3       30.12F FOG
East Hampton   FOG       39  39  98 SW3       30.11R VSB 1
Southold         N/A     41  39  93 W5          N/A
Montauk          N/A     42  41  96 W9        30.11R
$$

NYZ052-065-067-241100-
Hudson Valley

CITY           SKY/WX    TMP DP  RH WIND       PRES   REMARKS
White Plains   FAIR      41  39  93 W7        30.11R
Larchmont Harb   N/A     41 N/A N/A SW8         N/A
Croton On Huds   N/A     37 N/A N/A MISG        N/A
Somers           N/A     39  39 100 SW2         N/A
Brewster         N/A     36  36 100 CALM        N/A
Newburgh       NOT AVBL
Montgomery     MOCLDY    39  38  96 SW8       30.13R WCI  33
Otisville        N/A     39  39 100 W5          N/A
Warwick          N/A     41  41 100 W7          N/A
Suffern          N/A     41  41 100 S2          N/A
Poughkeepsie   FAIR      40  37  89 SW7       30.12R
Albany         CLOUDY    37  34  89 CALM      30.13S
$$

NJZ001-105-106-008-010-013-015-019>022-104-241100-
New Jersey

CITY           SKY/WX    TMP DP  RH WIND       PRES   REMARKS
Newark/Liberty MOCLDY    42  41  96 SW7       30.15R
Teterboro      FAIR      42  40  92 CALM      30.14R
Caldwell       MOCLDY    41  41 100 CALM      30.16R
Somerville     CLOUDY    42  42 100 CALM      30.15S
Linden         FAIR      43  41  91 CALM      30.17R
Perth Amboy      N/A     43 N/A N/A W13         N/A
Sussex         CLOUDY    40  40 100 SW7       30.15R FOG
Andover          N/A     40  40 100 VRB3      30.15R
Trenton        CLOUDY    44  43  96 W3        30.17R FOG
Millville      FOG       46  46 100 CALM      30.17F VSB 1/4
Atlantic City  CLOUDY    47  47 100 W6        30.17S
Wrightstown    CLOUDY    45  43  93 W5        30.15S FOG
Toms River     CLOUDY   N/A N/A N/A W8        30.18R
Belmar         CLOUDY   N/A N/A N/A W12       30.19R HAZE
$$

PAZ047>061-062-071-241100-
Eastern Pennsylvania

CITY           SKY/WX    TMP DP  RH WIND       PRES   REMARKS
Philadelphia   CLOUDY    44  43  96 W3        30.19R
Allentown      CLOUDY    42  39  89 SW7       30.16F FOG
Scranton       FOG       40  40 100 CALM      30.15S VSB 1/4
$$

CTZ002-004>006-009-010-012-RIZ004-006-007-MAZ004-011-015-241100-
Southern New England

 In CT

CITY           SKY/WX    TMP DP  RH WIND       PRES   REMARKS
Bradley Intl   MOCLDY    38  38 100 S5        30.10R WCI  34
Hartford       MOCLDY    36  35  96 CALM      30.11R FOG
Danbury        MOCLDY    40  39  97 CALM      30.12R
Wtrbury/Oxford FAIR      37  37 100 W3        30.10S
Norwalk Harbor   N/A     37 N/A N/A SW6         N/A  WCI  33
Bridgeport     FAIR      39  37  92 W5        30.10F
Meriden        FAIR      36  36 100 SE5       30.11R FOG     WCI  32
New Haven      FAIR      40  38  93 SW5       30.10F FOG
Chester        CLOUDY    39  39 100 CALM      30.08S FOG
Groton         CLOUDY    41  38  89 W8        30.09S
Willimantic    CLOUDY    42  39  89 CALM      30.10R

 In RI

CITY           SKY/WX    TMP DP  RH WIND       PRES   REMARKS
Providence     FAIR      41  40  96 SW6       30.08R
Block Island   CLOUDY    39  39 100 W14       30.11R FOG     WCI  31
Westerly       FOG       40  40 100 W5        30.10R VSB 1

In MA

CITY           SKY/WX    TMP DP  RH WIND       PRES   REMARKS
Boston         FAIR      43  40  89 SW15      30.03R
Worcester      CLOUDY    38  37  97 W17G24    30.01R WCI  28
Westfield      CLOUDY    40  39  97 S8        30.08R WCI  34
Provincetown   FAIR      40  39  97 W13       30.04R WCI  32
Nantucket      FOG       39  39 100 W20G28    30.07R VSB 1   WCI  29
$$

ANZ330-335-338-340-345-350-353-355-241100-
Coastal Marine Observations


STATION/POSITION TIME  SKY/WX   TEMP    WIND        PRES    VSBY  WAVE
                                AIR SEA DIR/SP/G                  HT/PER
                 (UTC)          (F)     (DEG/KT/KT) (MB)    (MI)  (FT/S)
NY Harb Entrance 0950            41 39  250/  2/  4 1021.5          3/ 6
20 S Fire Island 0950            43 42  250/ 10/ 12 1020.6          3/ 7
23 SSW Montauk P 0950            41 42  250/ 19/ 23 1019.9          4/ 4
15 E Barnegat Li 0930               42                N/A           3/ 8
Hudson Canyon    0950            45 46  270/ 17/ 21 1021.3          5/ 5
Kings Point      0936            42 38  270/  4/  6 1021.3
Execution Rocks  NOT AVBL
Western LI Sound NOT AVBL
Central LI Sound 0930            39     270/ 10/ 12   N/A           1
Robbins Reef     0936            43     260/  9/ 12 1021.3
$$


>>>>>>>>>>>>>>>>>>>>>>>>>>>> KEY <<<<<<<<<<<<<<<<<<<<<<<<<<<
>                                                          <
>     SKY/WX - Sky Condition/Present Weather               <
>     TMP    - Temperature in Fahrenheit                   <
>     DP     - Dew Point in Fahrenheit                     <
>     RH     - Relative Humidity in Percent                <
>     WIND   - Direction (from) and Speed in MPH           <
>     PRES   - Mean Sea Level Pressure (inches of Hg)      <
>     WCI    - Wind Chill Index                            <
>     VSB    - Visibility in Miles                         <
>     HX     - Heat Index                                  <
>     TC     - Temperature in Celsius                      <
>     VRB    - Varibale Wind Direction                     <
>                                                          <
>>>>>>>>>>>>>>>>>>>>>>>>>>>> KEY <<<<<<<<<<<<<<<<<<<<<<<<<<<




USA.gov is the U.S. government's official web portal to all federal, state and local government web resources and services.